Austin Bergstrom, TX

3:41 AM CDT on June 27, 2017 (GMT -0500)
Austin Bergstrom International

Weather History for KAUS - December, 2011

Change the Weather History Date:

Tuesday, December 13, 2011

  Actual Average Record
Temperature  
Mean Temperature 64 °F 50 °F  
Max Temperature 70 °F 64 °F 81 °F (1995)
Min Temperature 57 °F 37 °F 12 °F (1989)
Degree Days  
Heating Degree Days 1 15  
Month to date heating degree days 193 180  
Since 1 July heating degree days 462 465  
Cooling Degree Days 0 0  
Month to date cooling degree days 0 5  
Year to date cooling degree days 3576 2746  
Growing Degree Days 14 (Base 50)    
Moisture  
Dew Point 62 °F    
Average Humidity 93    
Maximum Humidity 100    
Minimum Humidity 86    
Precipitation  
Precipitation 0.03 in 0.07 in 1.18 in (2015)
Month to date precipitation 2.12 0.93  
Year to date precipitation 14.13 33.36  
Snow  
Snow 0.00 in - - ()
Month to date snowfall 0.0  
Since 1 July snowfall 0.0  
Snow Depth 0.00 in    
Sea Level Pressure  
Sea Level Pressure 30.16 in    
Wind  
Wind Speed 9 mph (SE)    
Max Wind Speed 20 mph    
Max Gust Speed 24 mph    
Visibility 4 miles    
Events Fog , Rain    
T = Trace of Precipitation, MM = Missing Value Source: NWS Daily Summary

Daily Weather History Graph

Daily Weather History Graph

Search for Another Location

Airport or City:

Trip Planner

Search our weather history database for the weather conditions in past years. The results will help you decide how hot, cold, wet, or windy it might be!

Date:

Astronomy

Dec. 13, 2011 Rise Set
Actual Time 7:18 AM CST 5:31 PM CST
Civil Twilight 6:51 AM CST 5:57 PM CST
Nautical Twilight 6:21 AM CST 6:27 PM CST
Astronomical Twilight 5:52 AM CST 6:57 PM CST
Moon 8:39 PM CST (12/13) 9:35 AM CST (12/13)
Length of Visible Light 11h 06m
Length of Day
10h 13m
Waning Gibbous, 90% of the Moon is Illuminated
Dec 13
Waning Gibbous
Dec 17
Last Quarter
Dec 24
New
Jan 1
First Quarter
Jan 9
Full

Hourly Weather History & Observations

Time (CST) Temp. Dew Point Humidity Pressure Visibility Wind Dir Wind Speed Gust Speed Precip Events Conditions
12:12 AM 59.0 °F 53.6 °F 82% 30.23 in 10.0 mi East 5.8 mph - N/A   Mostly Cloudy
12:53 AM 57.9 °F 53.1 °F 84% 30.22 in 9.0 mi SE 5.8 mph - N/A   Overcast
1:11 AM 57.2 °F 53.6 °F 88% 30.22 in 10.0 mi SE 8.1 mph - N/A   Overcast
1:53 AM 57.9 °F 54.0 °F 87% 30.21 in 10.0 mi SE 5.8 mph - N/A   Overcast
2:33 AM 57.2 °F 55.4 °F 94% 30.21 in 8.0 mi SE 3.5 mph - N/A   Overcast
2:53 AM 57.9 °F 55.9 °F 93% 30.20 in 8.0 mi ESE 8.1 mph - N/A   Overcast
3:34 AM 57.2 °F 57.2 °F 100% 30.20 in 3.0 mi ESE 8.1 mph - N/A   Overcast
3:53 AM 57.0 °F 57.0 °F 100% 30.19 in 2.0 mi SE 9.2 mph - N/A   Overcast
4:04 AM 57.2 °F 57.2 °F 100% 30.18 in 1.0 mi ESE 9.2 mph - N/A   Overcast
4:53 AM 57.0 °F 57.0 °F 100% 30.19 in 1.5 mi SE 5.8 mph - N/A   Overcast
5:53 AM 57.9 °F 57.9 °F 100% 30.18 in 1.0 mi ESE 3.5 mph - N/A   Overcast
6:07 AM 57.2 °F 57.2 °F 100% 30.19 in 0.5 mi Calm Calm - N/A   Overcast
6:53 AM 57.9 °F 57.9 °F 100% 30.20 in 0.5 mi Calm Calm - N/A   Overcast
7:30 AM 59.0 °F 59.0 °F 100% 30.21 in 0.2 mi ESE 4.6 mph - N/A   Overcast
7:53 AM 59.0 °F 59.0 °F 100% 30.20 in 0.2 mi ESE 5.8 mph - N/A Fog Fog
8:53 AM 59.0 °F 59.0 °F 100% 30.22 in 0.2 mi ESE 5.8 mph - N/A Fog Fog
9:53 AM 61.0 °F 61.0 °F 100% 30.22 in 0.5 mi SE 6.9 mph - N/A   Overcast
10:19 AM 62.6 °F 62.6 °F 100% 30.23 in 1.0 mi SSE 8.1 mph - N/A   Overcast
10:49 AM 62.6 °F 62.6 °F 100% 30.22 in 2.0 mi SE 6.9 mph - N/A   Overcast
10:53 AM 63.0 °F 62.1 °F 97% 30.22 in 2.0 mi SE 6.9 mph - N/A   Overcast
11:01 AM 64.4 °F 62.6 °F 94% 30.22 in 2.0 mi SE 11.5 mph - N/A   Overcast
11:11 AM 64.4 °F 62.6 °F 94% 30.21 in 3.0 mi SE 11.5 mph 20.7 mph N/A   Overcast
11:53 AM 66.9 °F 63.0 °F 87% 30.18 in 5.0 mi SE 16.1 mph - N/A   Overcast
12:53 PM 66.0 °F 64.0 °F 93% 30.15 in 6.0 mi SSE 13.8 mph - N/A   Overcast
1:19 PM 66.2 °F 64.4 °F 94% 30.15 in 1.5 mi SE 9.2 mph - 0.00 in Rain Light Rain
1:39 PM 66.2 °F 64.4 °F 94% 30.14 in 2.0 mi SSE 8.1 mph - 0.00 in   Overcast
1:53 PM 66.9 °F 64.9 °F 93% 30.13 in 2.0 mi SSE 8.1 mph - 0.00 in   Overcast
2:17 PM 68.0 °F 66.2 °F 94% 30.12 in 3.0 mi SE 9.2 mph - N/A   Overcast
2:53 PM 68.0 °F 66.0 °F 93% 30.11 in 5.0 mi SE 10.4 mph - N/A   Overcast
3:42 PM 69.8 °F 66.2 °F 88% 30.10 in 8.0 mi SE 10.4 mph - N/A   Overcast
3:53 PM 70.0 °F 66.9 °F 90% 30.09 in 8.0 mi SE 8.1 mph - N/A   Overcast
4:36 PM 69.8 °F 66.2 °F 88% 30.09 in 6.0 mi ESE 9.2 mph - N/A   Overcast
4:53 PM 70.0 °F 66.9 °F 90% 30.08 in 6.0 mi SE 8.1 mph - N/A   Overcast
5:24 PM 69.8 °F 66.2 °F 88% 30.09 in 7.0 mi SE 8.1 mph - N/A   Mostly Cloudy
5:53 PM 69.1 °F 66.9 °F 93% 30.09 in 7.0 mi SE 9.2 mph - N/A   Overcast
6:41 PM 69.8 °F 66.2 °F 88% 30.10 in 7.0 mi SE 8.1 mph - N/A   Overcast
6:53 PM 69.1 °F 66.9 °F 93% 30.09 in 7.0 mi SE 8.1 mph - N/A   Overcast
7:53 PM 70.0 °F 66.9 °F 90% 30.10 in 7.0 mi SE 12.7 mph - N/A   Overcast
8:53 PM 70.0 °F 66.9 °F 90% 30.09 in 7.0 mi SE 15.0 mph - 0.00 in   Overcast
9:53 PM 70.0 °F 66.9 °F 90% 30.10 in 7.0 mi SSE 15.0 mph - 0.00 in Rain Light Rain
10:53 PM 69.1 °F 66.9 °F 93% 30.09 in 7.0 mi SE 12.7 mph - 0.02 in   Overcast
11:32 PM 66.2 °F 66.2 °F 100% 30.10 in 4.0 mi SE 15.0 mph - 0.01 in Rain Light Rain
11:53 PM 66.9 °F 66.0 °F 97% 30.07 in 5.0 mi SE 13.8 mph - 0.01 in   Light Drizzle